When you browse on this site, cookies collect data to enhance your experience and personalize the content and advertising you see.
Visit our Privacy Policy to learn more. By continuing to use the site, you agree to this use of cookies and data.
  • In Schweiz
  • Länderverzeichnis
  • Für 7 Tage
  • Wassertemperatur
  • Wetterkarte
  • Widgets
  • user-avatar
    Anmelden

    Stündliche Wetter Sewersk

    Heute, 27 Februar, Donnerstag

    Zeit Temperatur Niederschläge Wind Luftdruck Luftfeuchtigkeit
    00:00 +3°C° 0 mm 6 m/S 746 mmHg 75%
    01:00 +3°C° 0 mm 6 m/S 746 mmHg 77%
    02:00 +3°C° 0 mm 6 m/S 746 mmHg 79%
    03:00 +2°C° 0 mm 5 m/S 746 mmHg 81%
    04:00 +2°C° 0 mm 5 m/S 745 mmHg 83%
    05:00 +2°C° 0 mm 5 m/S 745 mmHg 85%
    06:00 +2°C° 0 mm 5 m/S 745 mmHg 87%
    07:00 +3°C° 0 mm 5 m/S 745 mmHg 86%
    08:00 +3°C° 0 mm 5 m/S 745 mmHg 85%
    09:00 +5°C° 0 mm 5 m/S 745 mmHg 84%
    10:00 +5°C° 0 mm 6 m/S 745 mmHg 78%
    11:00 +8°C° 0 mm 7 m/S 745 mmHg 72%
    12:00 +10°C° 0 mm 7 m/S 744 mmHg 66%
    13:00 +10°C° 0 mm 7 m/S 744 mmHg 70%
    14:00 +10°C° 0 mm 7 m/S 744 mmHg 73%
    15:00 +10°C° 0 mm 6 m/S 744 mmHg 76%
    16:00 +10°C° 0 mm 6 m/S 744 mmHg 78%
    17:00 +9°C° 0 mm 6 m/S 744 mmHg 80%
    18:00 +9°C° 0 mm 5 m/S 744 mmHg 83%
    19:00 +9°C° 0 mm 6 m/S 744 mmHg 83%
    20:00 +9°C° 0 mm 6 m/S 744 mmHg 84%
    21:00 +9°C° 0 mm 6 m/S 744 mmHg 85%
    22:00 +9°C° 0 mm 6 m/S 744 mmHg 85%
    23:00 +8°C° 0 mm 6 m/S 744 mmHg 86%

    Morgen, 28 Februar, Freitag

    Zeit Temperatur Niederschläge Wind Luftdruck Luftfeuchtigkeit
    00:00 +8°C° 0 mm 6 m/S 744 mmHg 86%
    01:00 +8°C° 0.1 mm 6 m/S 743 mmHg 84%
    02:00 +8°C° 0.1 mm 6 m/S 743 mmHg 82%
    03:00 +8°C° 0.1 mm 6 m/S 743 mmHg 80%
    04:00 +7°C° 0.2 mm 6 m/S 742 mmHg 80%
    05:00 +7°C° 0.2 mm 6 m/S 741 mmHg 81%
    06:00 +6°C° 0.2 mm 5 m/S 741 mmHg 82%
    07:00 +7°C° 0.4 mm 6 m/S 741 mmHg 82%
    08:00 +6°C° 0.4 mm 7 m/S 740 mmHg 83%
    09:00 +6°C° 0.4 mm 8 m/S 740 mmHg 84%
    10:00 +6°C° 0 mm 8 m/S 740 mmHg 78%
    11:00 +6°C° 0 mm 9 m/S 741 mmHg 72%
    12:00 +5°C° 0 mm 9 m/S 741 mmHg 67%
    13:00 +3°C° 0.1 mm 9 m/S 742 mmHg 74%
    14:00 +2°C° 0.1 mm 10 m/S 743 mmHg 81%
    15:00 +1°C° 0.1 mm 10 m/S 744 mmHg 88%
    16:00 +1°C° 0 mm 9 m/S 745 mmHg 81%
    17:00 +1°C° 0 mm 8 m/S 747 mmHg 75%
    18:00 +2°C° 0 mm 7 m/S 748 mmHg 68%
    19:00 +2°C° 0 mm 6 m/S 749 mmHg 71%
    20:00 +1°C° 0 mm 5 m/S 750 mmHg 73%
    21:00 0°C° 0 mm 4 m/S 751 mmHg 76%
    22:00 +1°C° 0 mm 3 m/S 751 mmHg 77%
    23:00 +1°C° 0 mm 3 m/S 752 mmHg 79%

    übermorgen, 29 Februar, Samstag

    Zeit Temperatur Niederschläge Wind Luftdruck Luftfeuchtigkeit
    00:00 +1°C° 0 mm 3 m/S 752 mmHg 80%
    01:00 0°C° 0 mm 3 m/S 752 mmHg 81%
    02:00 +1°C° 0 mm 2 m/S 753 mmHg 81%
    03:00 +1°C° 0 mm 2 m/S 753 mmHg 82%
    04:00 +1°C° 0 mm 2 m/S 753 mmHg 81%
    05:00 +2°C° 0 mm 1 m/S 753 mmHg 81%
    06:00 +2°C° 0 mm 1 m/S 753 mmHg 81%
    07:00 +2°C° 0 mm 1 m/S 753 mmHg 79%
    08:00 +3°C° 0 mm 1 m/S 753 mmHg 77%
    09:00 +3°C° 0 mm 1 m/S 754 mmHg 75%
    10:00 +4°C° 0 mm 1 m/S 754 mmHg 70%
    11:00 +5°C° 0 mm 1 m/S 754 mmHg 64%
    12:00 +6°C° 0 mm 1 m/S 754 mmHg 59%
    13:00 +6°C° 0 mm 1 m/S 754 mmHg 55%
    14:00 +6°C° 0 mm 0 m/S 754 mmHg 52%
    15:00 +6°C° 0 mm 0 m/S 754 mmHg 48%
    16:00 +6°C° 0 mm 0 m/S 754 mmHg 52%
    17:00 +6°C° 0 mm 1 m/S 754 mmHg 55%
    18:00 +6°C° 0 mm 1 m/S 754 mmHg 58%
    19:00 +5°C° 0 mm 1 m/S 754 mmHg 60%
    20:00 +5°C° 0 mm 1 m/S 755 mmHg 63%
    21:00 +4°C° 0 mm 1 m/S 756 mmHg 65%
    22:00 +4°C° 0 mm 1 m/S 756 mmHg 67%
    23:00 +3°C° 0 mm 1 m/S 756 mmHg 69%

    1 März, Sonntag

    Zeit Temperatur Niederschläge Wind Luftdruck Luftfeuchtigkeit
    00:00 +2°C° 0 mm 0 m/S 756 mmHg 70%
    01:00 +2°C° 0 mm 0 m/S 756 mmHg 71%
    02:00 +2°C° 0 mm 0 m/S 757 mmHg 72%
    03:00 +2°C° 0 mm 0 m/S 757 mmHg 72%
    04:00 +1°C° 0 mm 0 m/S 757 mmHg 73%
    05:00 +1°C° 0 mm 0 m/S 758 mmHg 73%
    06:00 +1°C° 0 mm 0 m/S 758 mmHg 73%
    07:00 +3°C° 0 mm 1 m/S 759 mmHg 71%
    08:00 +3°C° 0 mm 1 m/S 759 mmHg 68%
    09:00 +4°C° 0 mm 1 m/S 760 mmHg 66%
    10:00 +5°C° 0 mm 1 m/S 760 mmHg 61%
    11:00 +6°C° 0 mm 1 m/S 760 mmHg 56%
    12:00 +7°C° 0 mm 1 m/S 760 mmHg 52%
    13:00 +8°C° 0 mm 1 m/S 760 mmHg 49%
    14:00 +8°C° 0 mm 1 m/S 760 mmHg 46%
    15:00 +8°C° 0 mm 0 m/S 760 mmHg 43%
    16:00 +8°C° 0 mm 1 m/S 760 mmHg 46%
    17:00 +8°C° 0 mm 1 m/S 760 mmHg 48%
    18:00 +7°C° 0 mm 1 m/S 760 mmHg 51%
    19:00 +6°C° 0 mm 1 m/S 760 mmHg 54%
    20:00 +5°C° 0 mm 2 m/S 760 mmHg 57%
    21:00 +4°C° 0 mm 2 m/S 761 mmHg 61%
    22:00 +4°C° 0 mm 2 m/S 761 mmHg 63%
    23:00 +3°C° 0 mm 2 m/S 761 mmHg 66%

    2 März, Montag

    Zeit Temperatur Niederschläge Wind Luftdruck Luftfeuchtigkeit
    00:00 +3°C° 0 mm 2 m/S 761 mmHg 68%
    01:00 +3°C° 0 mm 2 m/S 761 mmHg 71%
    02:00 +2°C° 0 mm 2 m/S 761 mmHg 73%
    03:00 +2°C° 0 mm 2 m/S 761 mmHg 75%
    04:00 +2°C° 0 mm 2 m/S 761 mmHg 75%
    05:00 +2°C° 0 mm 2 m/S 760 mmHg 76%
    06:00 0°C° 0 mm 3 m/S 760 mmHg 76%
    07:00 +1°C° 0 mm 3 m/S 760 mmHg 74%
    08:00 +2°C° 0 mm 3 m/S 761 mmHg 72%
    09:00 +1°C° 0 mm 4 m/S 761 mmHg 69%
    10:00 +3°C° 0 mm 4 m/S 760 mmHg 64%
    11:00 +5°C° 0 mm 5 m/S 760 mmHg 59%
    12:00 +6°C° 0 mm 5 m/S 760 mmHg 54%
    13:00 +6°C° 0 mm 5 m/S 759 mmHg 53%
    14:00 +5°C° 0 mm 6 m/S 759 mmHg 51%
    15:00 +7°C° 0 mm 6 m/S 758 mmHg 50%
    16:00 +6°C° 0 mm 5 m/S 758 mmHg 54%
    17:00 +5°C° 0 mm 5 m/S 758 mmHg 57%
    18:00 +5°C° 0 mm 4 m/S 757 mmHg 61%
    19:00 +4°C° 0 mm 4 m/S 757 mmHg 63%
    20:00 +3°C° 0 mm 5 m/S 757 mmHg 65%
    21:00 +3°C° 0 mm 5 m/S 757 mmHg 67%
    22:00 +2°C° 0 mm 5 m/S 757 mmHg 66%
    23:00 +2°C° 0 mm 6 m/S 757 mmHg 65%

    3 März, Dienstag

    Zeit Temperatur Niederschläge Wind Luftdruck Luftfeuchtigkeit
    00:00 +2°C° 0 mm 6 m/S 756 mmHg 64%
    01:00 +2°C° 0 mm 6 m/S 756 mmHg 64%
    02:00 +2°C° 0 mm 6 m/S 756 mmHg 64%
    03:00 +2°C° 0 mm 6 m/S 755 mmHg 64%
    04:00 +2°C° 0 mm 6 m/S 755 mmHg 65%
    05:00 +2°C° 0 mm 6 m/S 755 mmHg 67%
    06:00 +2°C° 0 mm 6 m/S 755 mmHg 68%
    07:00 +2°C° 0.1 mm 7 m/S 755 mmHg 71%
    08:00 +2°C° 0.1 mm 7 m/S 755 mmHg 73%
    09:00 +1°C° 0.1 mm 8 m/S 754 mmHg 75%
    10:00 +2°C° 0.4 mm 7 m/S 754 mmHg 77%
    11:00 +2°C° 0.4 mm 6 m/S 754 mmHg 79%
    12:00 +2°C° 0.4 mm 6 m/S 754 mmHg 82%
    13:00 +3°C° 0.4 mm 5 m/S 754 mmHg 79%
    14:00 +5°C° 0.4 mm 5 m/S 754 mmHg 76%
    15:00 +5°C° 0.4 mm 4 m/S 753 mmHg 73%
    16:00 +6°C° 0 mm 4 m/S 753 mmHg 75%
    17:00 +6°C° 0 mm 4 m/S 753 mmHg 76%
    18:00 +7°C° 0 mm 4 m/S 753 mmHg 78%
    19:00 +7°C° 0 mm 4 m/S 753 mmHg 81%
    20:00 +7°C° 0 mm 4 m/S 753 mmHg 84%
    21:00 +7°C° 0 mm 5 m/S 753 mmHg 87%
    22:00 +6°C° 0 mm 4 m/S 753 mmHg 88%
    23:00 +6°C° 0 mm 4 m/S 753 mmHg 90%
    Mehr zeigen